Lawton, OK

12:10 AM CDT on April 25, 2018 (GMT -0500)
Lawton-Fort Sill Regional

Weather History for KLAW - November, 2012

Change the Weather History Date:

Friday, November 16, 2012

  Actual Average Record
Temperature  
Mean Temperature 50 °F -  
Max Temperature 63 °F 64 °F 84 °F (1952)
Min Temperature 37 °F 37 °F 14 °F (1932)
Degree Days  
Heating Degree Days 15    
Moisture  
Dew Point 33 °F    
Average Humidity 56    
Maximum Humidity 82    
Minimum Humidity 26    
Precipitation  
Precipitation 0.00 in - - ()
Sea Level Pressure  
Sea Level Pressure 30.37 in    
Wind  
Wind Speed 3 mph (East)    
Max Wind Speed 8 mph    
Max Gust Speed -    
Visibility 10 miles    
Events      
T = Trace of Precipitation, MM = Missing Value Source: NWS Daily Summary

Daily Weather History Graph

Daily Weather History Graph

Search for Another Location

Airport or City:

Astronomy

Nov. 16, 2012 Rise Set
Actual Time 7:08 AM CST 5:28 PM CST
Civil Twilight 6:41 AM CST 5:54 PM CST
Nautical Twilight 6:11 AM CST 6:25 PM CST
Astronomical Twilight 5:41 AM CST 6:55 PM CST
Moon 10:02 AM CST (11/16) 8:30 PM CST (11/16)
Length of Visible Light 11h 12m
Length of Day
10h 19m
Waxing Crescent, 12% of the Moon is Illuminated
Nov 16
Waxing Crescent
Nov 20
First Quarter
Nov 28
Full
Dec 6
Last Quarter
Dec 13
New

Hourly Weather History & Observations

Time (CST) Temp. Windchill Dew Point Humidity Pressure Visibility Wind Dir Wind Speed Gust Speed Precip Events Conditions
12:53 AM 48.9 °F - 35.1 °F 59% 30.36 in 10.0 mi East 3.5 mph - N/A   Overcast
1:53 AM 46.9 °F - 36.0 °F 66% 30.36 in 10.0 mi North 3.5 mph - N/A   Overcast
2:53 AM 48.0 °F - 35.1 °F 61% 30.36 in 10.0 mi ENE 3.5 mph - N/A   Overcast
3:53 AM 44.1 °F - 36.0 °F 73% 30.37 in 10.0 mi Calm Calm - N/A   Overcast
4:53 AM 43.0 °F 39.5 °F 35.1 °F 74% 30.37 in 10.0 mi NE 5.8 mph - N/A   Mostly Cloudy
6:53 AM 43.0 °F - 37.0 °F 80% 30.40 in 10.0 mi Calm Calm - N/A   Overcast
7:53 AM 46.0 °F - 36.0 °F 68% 30.42 in 8.0 mi Calm Calm - N/A   Overcast
8:53 AM 48.0 °F - 35.1 °F 61% 30.43 in 10.0 mi ENE 5.8 mph - N/A   Overcast
9:53 AM 51.1 °F - 35.1 °F 54% 30.43 in 10.0 mi East 5.8 mph - N/A   Overcast
10:53 AM 54.0 °F - 35.1 °F 49% 30.43 in 10.0 mi East 3.5 mph - N/A   Mostly Cloudy
11:53 AM 57.9 °F - 32.0 °F 37% 30.41 in 10.0 mi ESE 8.1 mph - N/A   Mostly Cloudy
12:53 PM 60.1 °F - 27.0 °F 28% 30.38 in 10.0 mi SE 4.6 mph - N/A   Clear
1:53 PM 61.0 °F - 26.1 °F 26% 30.35 in 10.0 mi ESE 8.1 mph - N/A   Clear
2:53 PM 63.0 °F - 28.0 °F 27% 30.33 in 10.0 mi Variable 5.8 mph - N/A   Clear
3:53 PM 62.1 °F - 28.9 °F 29% 30.33 in 10.0 mi SE 6.9 mph - N/A   Clear
4:53 PM 61.0 °F - 30.9 °F 32% 30.33 in 10.0 mi SE 5.8 mph - N/A   Clear
5:53 PM 55.0 °F - 32.0 °F 42% 30.33 in 10.0 mi SE 3.5 mph - N/A   Clear
6:53 PM 48.9 °F - 33.1 °F 54% 30.35 in 10.0 mi Calm Calm - N/A   Clear
7:53 PM 44.1 °F - 33.1 °F 65% 30.35 in 10.0 mi Calm Calm - N/A   Clear
8:53 PM 44.1 °F - 33.1 °F 65% 30.35 in 10.0 mi Calm Calm - N/A   Clear
9:53 PM 39.9 °F - 33.1 °F 77% 30.36 in 10.0 mi Calm Calm - N/A   Clear
10:53 PM 37.9 °F - 32.0 °F 79% 30.36 in 10.0 mi Calm Calm - N/A   Clear
11:53 PM 37.0 °F - 32.0 °F 82% 30.35 in 10.0 mi Calm Calm - N/A   Clear